Time,TemperatureF,DewpointF,PressureIn,WindDirection,WindDirectionDegrees,WindSpeedMPH,WindSpeedGustMPH,Humidity,HourlyPrecipIn,Conditions,Clouds,dailyrainin,SoftwareType,DateUTC
2013-02-27 00:01:00,41.7,18.6,27.32,ESE,103,4.9,4.9,39,0.00,,---,0.00,VWS V13.01,2013-02-27 07:01:00,
2013-02-27 00:06:00,41.7,18.6,27.32,East,94,0.0,3.1,39,0.00,,---,0.00,VWS V13.01,2013-02-27 07:06:00,
2013-02-27 00:12:00,41.2,18.7,27.32,SE,133,5.8,5.8,40,0.00,,---,0.00,VWS V13.01,2013-02-27 07:12:00,
2013-02-27 00:17:00,41.2,18.7,27.32,SE,126,3.6,4.9,40,0.00,,---,0.00,VWS V13.01,2013-02-27 07:17:00,
2013-02-27 00:22:00,41.2,18.7,27.32,ENE,75,0.0,3.1,40,0.00,,---,0.00,VWS V13.01,2013-02-27 07:22:00,
2013-02-27 00:27:00,40.8,18.4,27.32,ENE,62,0.0,0.0,40,0.00,,---,0.00,VWS V13.01,2013-02-27 07:27:00,
2013-02-27 00:33:00,40.8,19.0,27.32,ENE,64,0.0,0.0,41,0.00,,---,0.00,VWS V13.01,2013-02-27 07:33:00,
2013-02-27 00:38:00,40.8,19.0,27.32,ENE,64,0.0,0.0,41,0.00,,---,0.00,VWS V13.01,2013-02-27 07:38:00,
2013-02-27 00:43:00,40.8,19.0,27.32,ENE,64,0.0,0.0,41,0.00,,---,0.00,VWS V13.01,2013-02-27 07:43:00,
2013-02-27 00:49:00,40.6,18.8,27.32,ENE,64,0.0,0.0,41,0.00,,---,0.00,VWS V13.01,2013-02-27 07:49:00,
2013-02-27 00:54:00,40.6,18.8,27.32,ENE,64,0.0,0.0,41,0.00,,---,0.00,VWS V13.01,2013-02-27 07:54:00,
2013-02-27 00:59:00,40.5,18.6,27.32,ENE,64,0.0,0.0,41,0.00,,---,0.00,VWS V13.01,2013-02-27 07:59:00,
2013-02-27 01:04:00,40.3,18.5,27.32,ENE,64,0.0,0.0,41,0.00,,---,0.00,VWS V13.01,2013-02-27 08:04:00,
2013-02-27 01:09:00,39.9,18.7,27.32,ENE,59,0.0,0.0,42,0.00,,---,0.00,VWS V13.01,2013-02-27 08:09:00,
2013-02-27 01:14:00,39.4,18.2,27.32,ENE,59,0.0,0.0,42,0.00,,---,0.00,VWS V13.01,2013-02-27 08:14:00,
2013-02-27 01:20:00,39.0,18.4,27.32,ENE,59,0.0,0.0,43,0.00,,---,0.00,VWS V13.01,2013-02-27 08:20:00,
2013-02-27 01:25:00,38.8,18.3,27.34,ENE,59,0.0,0.0,43,0.00,,---,0.00,VWS V13.01,2013-02-27 08:25:00,
2013-02-27 01:30:00,38.7,18.1,27.34,ENE,59,0.0,0.0,43,0.00,,---,0.00,VWS V13.01,2013-02-27 08:30:00,
2013-02-27 01:36:00,38.3,18.3,27.34,ENE,59,0.0,2.2,44,0.00,,---,0.00,VWS V13.01,2013-02-27 08:36:00,
2013-02-27 01:41:00,38.1,18.1,27.34,ENE,59,0.0,0.0,44,0.00,,---,0.00,VWS V13.01,2013-02-27 08:41:00,
2013-02-27 01:46:00,38.1,18.1,27.34,ENE,60,0.0,0.0,44,0.00,,---,0.00,VWS V13.01,2013-02-27 08:46:00,
2013-02-27 01:52:00,37.9,18.5,27.34,ENE,60,0.0,0.0,45,0.00,,---,0.00,VWS V13.01,2013-02-27 08:52:00,
2013-02-27 01:57:00,37.9,18.5,27.34,ENE,60,0.0,0.0,45,0.00,,---,0.00,VWS V13.01,2013-02-27 08:57:00,
2013-02-27 02:02:00,38.1,18.7,27.34,ENE,60,0.0,0.0,45,0.00,,---,0.00,VWS V13.01,2013-02-27 09:02:00,
2013-02-27 02:08:00,37.9,18.5,27.34,ENE,60,0.0,0.0,45,0.00,,---,0.00,VWS V13.01,2013-02-27 09:08:00,
2013-02-27 02:13:00,37.9,18.5,27.34,ENE,61,0.0,0.0,45,0.00,,---,0.00,VWS V13.01,2013-02-27 09:13:00,
2013-02-27 02:18:00,37.8,18.3,27.34,ENE,64,0.0,4.0,45,0.00,,---,0.00,VWS V13.01,2013-02-27 09:18:00,
2013-02-27 02:23:00,37.8,18.3,27.34,ENE,68,0.0,2.7,45,0.00,,---,0.00,VWS V13.01,2013-02-27 09:23:00,
2013-02-27 02:28:00,37.8,18.3,27.34,ENE,68,0.0,0.0,45,0.00,,---,0.00,VWS V13.01,2013-02-27 09:28:00,
2013-02-27 02:33:00,37.6,18.2,27.34,NE,37,0.0,0.0,45,0.00,,---,0.00,VWS V13.01,2013-02-27 09:33:00,
2013-02-27 02:39:00,37.6,18.7,27.34,NNW,329,0.0,0.0,46,0.00,,---,0.00,VWS V13.01,2013-02-27 09:39:00,
2013-02-27 02:44:00,37.2,18.4,27.34,NW,309,0.0,0.0,46,0.00,,---,0.00,VWS V13.01,2013-02-27 09:44:00,
2013-02-27 02:49:00,37.4,18.5,27.34,NW,309,0.0,0.0,46,0.00,,---,0.00,VWS V13.01,2013-02-27 09:49:00,
2013-02-27 02:54:00,37.2,18.4,27.34,NW,309,0.0,0.0,46,0.00,,---,0.00,VWS V13.01,2013-02-27 09:54:00,
2013-02-27 02:59:00,37.2,18.9,27.34,NW,308,0.0,0.0,47,0.00,,---,0.00,VWS V13.01,2013-02-27 09:59:00,
2013-02-27 03:04:00,37.2,18.9,27.34,South,186,0.0,0.0,47,0.00,,---,0.00,VWS V13.01,2013-02-27 10:04:00,
2013-02-27 03:10:00,37.4,18.5,27.37,South,183,3.6,3.6,46,0.00,,---,0.00,VWS V13.01,2013-02-27 10:10:00,
2013-02-27 03:15:00,37.4,18.5,27.37,South,181,2.7,3.1,46,0.00,,---,0.00,VWS V13.01,2013-02-27 10:15:00,
2013-02-27 03:20:00,37.6,18.7,27.37,ESE,120,4.0,4.0,46,0.00,,---,0.00,VWS V13.01,2013-02-27 10:20:00,
2013-02-27 03:26:00,38.1,18.7,27.34,ESE,107,0.0,4.0,45,0.00,,---,0.00,VWS V13.01,2013-02-27 10:26:00,
2013-02-27 03:31:00,38.5,19.0,27.34,ESE,106,0.0,4.0,45,0.00,,---,0.00,VWS V13.01,2013-02-27 10:31:00,
2013-02-27 03:36:00,38.7,18.6,27.37,ESE,106,0.0,0.0,44,0.00,,---,0.00,VWS V13.01,2013-02-27 10:36:00,
2013-02-27 03:42:00,38.7,18.6,27.37,ESE,106,0.0,0.0,44,0.00,,---,0.00,VWS V13.01,2013-02-27 10:42:00,
2013-02-27 03:47:00,38.7,18.6,27.37,ESE,106,0.0,0.0,44,0.00,,---,0.00,VWS V13.01,2013-02-27 10:47:00,
2013-02-27 03:52:00,38.5,18.5,27.34,ESE,106,0.0,0.0,44,0.00,,---,0.00,VWS V13.01,2013-02-27 10:52:00,
2013-02-27 03:57:00,37.9,18.0,27.34,ESE,106,0.0,0.0,44,0.00,,---,0.00,VWS V13.01,2013-02-27 10:57:00,
2013-02-27 04:02:00,37.6,18.2,27.34,ESE,106,0.0,0.0,45,0.00,,---,0.00,VWS V13.01,2013-02-27 11:02:00,
2013-02-27 04:08:00,37.2,17.9,27.37,ESE,106,0.0,0.0,45,0.00,,---,0.00,VWS V13.01,2013-02-27 11:08:00,
2013-02-27 04:13:00,37.0,18.2,27.37,ESE,106,0.0,0.0,46,0.00,,---,0.00,VWS V13.01,2013-02-27 11:13:00,
2013-02-27 04:18:00,36.5,17.7,27.37,ESE,106,0.0,0.0,46,0.00,,---,0.00,VWS V13.01,2013-02-27 11:18:00,
2013-02-27 04:23:00,36.1,17.4,27.37,ESE,106,0.0,0.0,46,0.00,,---,0.00,VWS V13.01,2013-02-27 11:23:00,
2013-02-27 04:28:00,36.1,17.4,27.37,ESE,106,0.0,0.0,46,0.00,,---,0.00,VWS V13.01,2013-02-27 11:28:00,
2013-02-27 04:33:00,35.8,17.5,27.37,ESE,106,0.0,0.0,47,0.00,,---,0.00,VWS V13.01,2013-02-27 11:33:00,
2013-02-27 04:39:00,35.6,17.4,27.37,ESE,106,0.0,0.0,47,0.00,,---,0.00,VWS V13.01,2013-02-27 11:39:00,
2013-02-27 04:44:00,35.6,17.4,27.37,ESE,106,0.0,0.0,47,0.00,,---,0.00,VWS V13.01,2013-02-27 11:44:00,
2013-02-27 04:49:00,35.4,17.7,27.37,ESE,106,0.0,0.0,48,0.00,,---,0.00,VWS V13.01,2013-02-27 11:49:00,
2013-02-27 04:54:00,35.4,17.7,27.40,ESE,106,0.0,0.0,48,0.00,,---,0.00,VWS V13.01,2013-02-27 11:54:00,
2013-02-27 04:59:00,35.1,17.4,27.40,ESE,106,0.0,0.0,48,0.00,,---,0.00,VWS V13.01,2013-02-27 11:59:00,
2013-02-27 05:04:00,35.1,17.4,27.40,ESE,106,0.0,0.0,48,0.00,,---,0.00,VWS V13.01,2013-02-27 12:04:00,
2013-02-27 05:10:00,34.9,17.2,27.40,ESE,106,0.0,0.0,48,0.00,,---,0.00,VWS V13.01,2013-02-27 12:10:00,
2013-02-27 05:15:00,34.7,17.5,27.40,ESE,106,0.0,0.0,49,0.00,,---,0.00,VWS V13.01,2013-02-27 12:15:00,
2013-02-27 05:20:00,34.5,17.3,27.40,ESE,106,0.0,0.0,49,0.00,,---,0.00,VWS V13.01,2013-02-27 12:20:00,
2013-02-27 05:25:00,34.3,17.6,27.40,ESE,106,0.0,0.0,50,0.00,,---,0.00,VWS V13.01,2013-02-27 12:25:00,
2013-02-27 05:31:00,34.0,17.3,27.40,ESE,106,0.0,0.0,50,0.00,,---,0.00,VWS V13.01,2013-02-27 12:31:00,
2013-02-27 05:36:00,33.8,17.1,27.40,ESE,106,0.0,0.0,50,0.00,,---,0.00,VWS V13.01,2013-02-27 12:36:00,
2013-02-27 05:41:00,33.6,17.4,27.40,ESE,106,0.0,0.0,51,0.00,,---,0.00,VWS V13.01,2013-02-27 12:41:00,
2013-02-27 05:47:00,33.3,17.1,27.40,ESE,106,0.0,0.0,51,0.00,,---,0.00,VWS V13.01,2013-02-27 12:47:00,
2013-02-27 05:52:00,33.1,17.4,27.37,ESE,106,0.0,0.0,52,0.00,,---,0.00,VWS V13.01,2013-02-27 12:52:00,
2013-02-27 05:57:00,32.9,17.2,27.37,ESE,106,0.0,0.0,52,0.00,,---,0.00,VWS V13.01,2013-02-27 12:57:00,
2013-02-27 06:03:00,32.9,17.2,27.37,ESE,106,0.0,0.0,52,0.00,,---,0.00,VWS V13.01,2013-02-27 13:03:00,
2013-02-27 06:08:00,32.7,17.5,27.37,ESE,106,0.0,0.0,53,0.00,,---,0.00,VWS V13.01,2013-02-27 13:08:00,
2013-02-27 06:13:00,32.5,17.3,27.37,ESE,106,0.0,0.0,53,0.00,,---,0.00,VWS V13.01,2013-02-27 13:13:00,
2013-02-27 06:18:00,32.5,17.3,27.37,ESE,106,0.0,0.0,53,0.00,,---,0.00,VWS V13.01,2013-02-27 13:18:00,
2013-02-27 06:23:00,32.5,17.3,27.37,ESE,106,0.0,0.0,53,0.00,,---,0.00,VWS V13.01,2013-02-27 13:23:00,
2013-02-27 06:28:00,32.5,17.8,27.37,ESE,106,0.0,0.0,54,0.00,,---,0.00,VWS V13.01,2013-02-27 13:28:00,
2013-02-27 06:33:00,32.4,17.6,27.37,ESE,106,0.0,0.0,54,0.00,,---,0.00,VWS V13.01,2013-02-27 13:33:00,
2013-02-27 06:38:00,32.2,17.4,27.34,ESE,106,0.0,0.0,54,0.00,,---,0.00,VWS V13.01,2013-02-27 13:38:00,
2013-02-27 06:43:00,32.4,17.6,27.34,ESE,106,0.0,0.0,54,0.00,,---,0.00,VWS V13.01,2013-02-27 13:43:00,
2013-02-27 06:49:00,32.4,17.6,27.34,ESE,106,0.0,0.0,54,0.00,,---,0.00,VWS V13.01,2013-02-27 13:49:00,
2013-02-27 06:54:00,32.5,17.8,27.37,ESE,106,0.0,0.0,54,0.00,,---,0.00,VWS V13.01,2013-02-27 13:54:00,
2013-02-27 06:59:00,32.5,17.8,27.37,ESE,106,0.0,0.0,54,0.00,,---,0.00,VWS V13.01,2013-02-27 13:59:00,
2013-02-27 07:05:00,32.4,17.6,27.37,ESE,106,0.0,0.0,54,0.00,,---,0.00,VWS V13.01,2013-02-27 14:05:00,
2013-02-27 07:10:00,32.2,17.8,27.37,ESE,106,0.0,0.0,55,0.00,,---,0.00,VWS V13.01,2013-02-27 14:10:00,
2013-02-27 07:15:00,32.4,17.6,27.37,ESE,106,0.0,0.0,54,0.00,,---,0.00,VWS V13.01,2013-02-27 14:15:00,
2013-02-27 07:20:00,32.7,17.9,27.37,ESE,106,0.0,0.0,54,0.00,,---,0.00,VWS V13.01,2013-02-27 14:20:00,
2013-02-27 07:25:00,33.4,18.6,27.40,ESE,106,0.0,0.0,54,0.00,,---,0.00,VWS V13.01,2013-02-27 14:25:00,
2013-02-27 07:30:00,34.2,18.8,27.40,ESE,106,0.0,0.0,53,0.00,,---,0.00,VWS V13.01,2013-02-27 14:30:00,
2013-02-27 07:36:00,35.1,19.2,27.40,ESE,106,0.0,0.0,52,0.00,,---,0.00,VWS V13.01,2013-02-27 14:36:00,
2013-02-27 07:41:00,35.6,19.3,27.40,ESE,106,0.0,0.0,51,0.00,,---,0.00,VWS V13.01,2013-02-27 14:41:00,
2013-02-27 07:46:00,35.8,19.4,27.40,ESE,106,0.0,0.0,51,0.00,,---,0.00,VWS V13.01,2013-02-27 14:46:00,
2013-02-27 07:51:00,36.7,19.8,27.40,East,84,2.7,4.0,50,0.00,,---,0.00,VWS V13.01,2013-02-27 14:51:00,
2013-02-27 07:56:00,37.4,20.0,27.40,East,84,0.0,0.0,49,0.00,,---,0.00,VWS V13.01,2013-02-27 14:56:00,
2013-02-27 08:01:00,37.9,20.0,27.40,East,84,0.0,0.0,48,0.00,,---,0.00,VWS V13.01,2013-02-27 15:01:00,
2013-02-27 08:07:00,38.5,20.5,27.40,East,85,0.0,0.0,48,0.00,,---,0.00,VWS V13.01,2013-02-27 15:07:00,
2013-02-27 08:12:00,38.8,20.8,27.40,East,85,0.0,0.0,48,0.00,,---,0.00,VWS V13.01,2013-02-27 15:12:00,
2013-02-27 08:17:00,39.7,21.2,27.40,East,85,0.0,0.0,47,0.00,,---,0.00,VWS V13.01,2013-02-27 15:17:00,
2013-02-27 08:23:00,40.5,21.3,27.40,East,85,0.0,0.0,46,0.00,,---,0.00,VWS V13.01,2013-02-27 15:23:00,
2013-02-27 08:28:00,41.0,21.8,27.40,East,85,0.0,0.0,46,0.00,,---,0.00,VWS V13.01,2013-02-27 15:28:00,
2013-02-27 08:33:00,41.5,22.3,27.40,East,85,0.0,0.0,46,0.00,,---,0.00,VWS V13.01,2013-02-27 15:33:00,
2013-02-27 08:38:00,42.3,22.5,27.43,East,85,0.0,0.0,45,0.00,,---,0.00,VWS V13.01,2013-02-27 15:38:00,
2013-02-27 08:43:00,43.2,22.7,27.43,East,85,0.0,0.0,44,0.00,,---,0.00,VWS V13.01,2013-02-27 15:43:00,
2013-02-27 08:49:00,43.7,23.2,27.43,East,85,0.0,0.0,44,0.00,,---,0.00,VWS V13.01,2013-02-27 15:49:00,
2013-02-27 08:54:00,44.8,23.1,27.43,East,85,0.0,0.0,42,0.00,,---,0.00,VWS V13.01,2013-02-27 15:54:00,
2013-02-27 09:00:00,45.3,22.4,27.43,East,85,0.0,0.0,40,0.00,,---,0.00,VWS V13.01,2013-02-27 16:00:00,
2013-02-27 09:05:00,46.2,22.6,27.43,East,85,0.0,0.0,39,0.00,,---,0.00,VWS V13.01,2013-02-27 16:05:00,
2013-02-27 09:10:00,46.8,21.9,27.43,NNE,14,0.0,0.0,37,0.00,,---,0.00,VWS V13.01,2013-02-27 16:10:00,
2013-02-27 09:16:00,47.3,19.0,27.43,NNW,334,0.0,0.0,32,0.00,,---,0.00,VWS V13.01,2013-02-27 16:16:00,
2013-02-27 09:21:00,47.8,18.7,27.43,NNW,334,0.0,0.0,31,0.00,,---,0.00,VWS V13.01,2013-02-27 16:21:00,
2013-02-27 09:26:00,48.4,17.6,27.43,WNW,303,0.0,0.0,29,0.00,,---,0.00,VWS V13.01,2013-02-27 16:26:00,
2013-02-27 09:32:00,48.7,17.1,27.43,NNW,345,3.1,3.1,28,0.00,,---,0.00,VWS V13.01,2013-02-27 16:32:00,
2013-02-27 09:37:00,48.9,17.3,27.43,NW,305,0.0,0.0,28,0.00,,---,0.00,VWS V13.01,2013-02-27 16:37:00,
2013-02-27 09:42:00,49.1,17.4,27.43,NW,317,0.0,0.0,28,0.00,,---,0.00,VWS V13.01,2013-02-27 16:42:00,
2013-02-27 09:47:00,49.5,17.7,27.43,WNW,293,0.0,0.0,28,0.00,,---,0.00,VWS V13.01,2013-02-27 16:47:00,
2013-02-27 09:53:00,49.8,17.2,27.43,WNW,302,0.0,5.8,27,0.00,,---,0.00,VWS V13.01,2013-02-27 16:53:00,
2013-02-27 09:58:00,50.2,17.5,27.43,WSW,243,3.6,5.8,27,0.00,,---,0.00,VWS V13.01,2013-02-27 16:58:00,
2013-02-27 10:03:00,50.9,18.1,27.43,West,281,0.0,5.4,27,0.00,,---,0.00,VWS V13.01,2013-02-27 17:03:00,
2013-02-27 10:09:00,51.1,17.4,27.43,WNW,296,5.4,5.4,26,0.00,,---,0.00,VWS V13.01,2013-02-27 17:09:00,
2013-02-27 10:14:00,51.6,13.0,27.43,WNW,297,0.0,5.4,21,0.00,,---,0.00,VWS V13.01,2013-02-27 17:14:00,
2013-02-27 10:19:00,52.0,15.4,27.43,WNW,292,0.0,4.0,23,0.00,,---,0.00,VWS V13.01,2013-02-27 17:19:00,
2013-02-27 10:25:00,52.2,10.0,27.43,NW,313,0.0,4.0,18,0.00,,---,0.00,VWS V13.01,2013-02-27 17:25:00,
2013-02-27 10:30:00,52.7,7.8,27.43,West,278,4.0,5.4,16,0.00,,---,0.00,VWS V13.01,2013-02-27 17:30:00,
2013-02-27 10:35:00,53.1,8.1,27.43,West,260,4.9,5.4,16,0.00,,---,0.00,VWS V13.01,2013-02-27 17:35:00,
2013-02-27 10:40:00,53.2,0.1,27.43,WNW,301,0.0,4.0,11,0.00,,---,0.00,VWS V13.01,2013-02-27 17:40:00,
2013-02-27 10:46:00,53.8,-1.5,27.43,WNW,299,3.1,5.4,10,0.00,,---,0.00,VWS V13.01,2013-02-27 17:46:00,
2013-02-27 10:51:00,54.1,-5.9,27.43,NW,321,0.0,5.8,8,0.00,,---,0.00,VWS V13.01,2013-02-27 17:51:00,
2013-02-27 10:56:00,54.3,-8.5,27.43,NW,320,0.0,4.9,7,0.00,,---,0.00,VWS V13.01,2013-02-27 17:56:00,
2013-02-27 11:02:00,54.9,-8.1,27.43,WNW,295,3.1,3.1,7,0.00,,---,0.00,VWS V13.01,2013-02-27 18:02:00,
2013-02-27 11:07:00,55.4,-10.8,27.43,WNW,303,3.6,5.4,6,0.00,,---,0.00,VWS V13.01,2013-02-27 18:07:00,
2013-02-27 11:12:00,55.6,-10.7,27.43,NW,319,3.6,6.3,6,0.00,,---,0.00,VWS V13.01,2013-02-27 18:12:00,
2013-02-27 11:17:00,55.8,-10.6,27.43,NNW,345,0.0,0.0,6,0.00,,---,0.00,VWS V13.01,2013-02-27 18:17:00,
2013-02-27 11:23:00,55.9,-10.4,27.40,NW,307,0.0,4.0,6,0.00,,---,0.00,VWS V13.01,2013-02-27 18:23:00,
2013-02-27 11:28:00,56.8,-9.8,27.40,WNW,290,0.0,0.0,6,0.00,,---,0.00,VWS V13.01,2013-02-27 18:28:00,
2013-02-27 11:33:00,57.0,-9.6,27.40,SW,225,0.0,4.0,6,0.00,,---,0.00,VWS V13.01,2013-02-27 18:33:00,
2013-02-27 11:39:00,57.0,-9.6,27.43,WNW,292,0.0,4.0,6,0.00,,---,0.00,VWS V13.01,2013-02-27 18:39:00,
2013-02-27 11:44:00,57.4,-9.4,27.43,North,2,0.0,0.0,6,0.00,,---,0.00,VWS V13.01,2013-02-27 18:44:00,
2013-02-27 11:49:00,58.1,-8.8,27.43,WNW,287,0.0,5.4,6,0.00,,---,0.00,VWS V13.01,2013-02-27 18:49:00,
2013-02-27 11:55:00,58.5,-8.6,27.43,WNW,299,0.0,3.6,6,0.00,,---,0.00,VWS V13.01,2013-02-27 18:55:00,
2013-02-27 12:00:00,58.6,-8.4,27.43,WNW,297,0.0,4.5,6,0.00,,---,0.00,VWS V13.01,2013-02-27 19:00:00,
2013-02-27 12:05:00,59.2,-8.1,27.43,WNW,300,3.6,8.3,6,0.00,,---,0.00,VWS V13.01,2013-02-27 19:05:00,
2013-02-27 12:10:00,59.2,-8.1,27.40,NW,322,0.0,4.0,6,0.00,,---,0.00,VWS V13.01,2013-02-27 19:10:00,
2013-02-27 12:15:00,59.7,-7.7,27.40,WNW,287,4.0,5.8,6,0.00,,---,0.00,VWS V13.01,2013-02-27 19:15:00,
2013-02-27 12:20:00,60.1,-7.4,27.40,WSW,246,8.1,8.7,6,0.00,,---,0.00,VWS V13.01,2013-02-27 19:20:00,
2013-02-27 12:26:00,60.4,-7.1,27.40,West,276,4.0,5.4,6,0.00,,---,0.00,VWS V13.01,2013-02-27 19:26:00,
2013-02-27 12:31:00,60.6,-7.0,27.40,North,350,0.0,0.0,6,0.00,,---,0.00,VWS V13.01,2013-02-27 19:31:00,
2013-02-27 12:36:00,60.6,-7.0,27.40,NW,309,0.0,5.4,6,0.00,,---,0.00,VWS V13.01,2013-02-27 19:36:00,
2013-02-27 12:42:00,60.8,-10.6,27.40,NW,304,3.6,3.6,5,0.00,,---,0.00,VWS V13.01,2013-02-27 19:42:00,
2013-02-27 12:47:00,61.7,-9.9,27.40,WSW,252,5.8,8.1,5,0.00,,---,0.00,VWS V13.01,2013-02-27 19:47:00,
2013-02-27 12:52:00,61.5,-10.1,27.40,NW,322,0.0,2.2,5,0.00,,---,0.00,VWS V13.01,2013-02-27 19:52:00,
2013-02-27 12:58:00,62.1,-9.7,27.40,SW,223,0.0,4.9,5,0.00,,---,0.00,VWS V13.01,2013-02-27 19:58:00,
2013-02-27 13:03:00,62.4,-9.4,27.40,North,7,0.0,5.4,5,0.00,,---,0.00,VWS V13.01,2013-02-27 20:03:00,
2013-02-27 13:08:00,62.8,-9.2,27.37,West,262,8.7,8.7,5,0.00,,---,0.00,VWS V13.01,2013-02-27 20:08:00,
2013-02-27 13:14:00,62.8,-9.2,27.37,West,273,5.4,7.2,5,0.00,,---,0.00,VWS V13.01,2013-02-27 20:14:00,
2013-02-27 13:19:00,62.8,-9.2,27.37,NW,308,0.0,6.3,5,0.00,,---,0.00,VWS V13.01,2013-02-27 20:19:00,
2013-02-27 13:24:00,63.0,-9.0,27.37,WNW,282,8.7,8.7,5,0.00,,---,0.00,VWS V13.01,2013-02-27 20:24:00,
2013-02-27 13:29:00,62.8,-9.2,27.37,NNW,329,0.0,4.0,5,0.00,,---,0.00,VWS V13.01,2013-02-27 20:29:00,
2013-02-27 13:34:00,62.6,-9.3,27.37,NW,317,0.0,5.8,5,0.00,,---,0.00,VWS V13.01,2013-02-27 20:34:00,
2013-02-27 13:39:00,63.0,-9.0,27.37,WSW,254,4.0,6.3,5,0.00,,---,0.00,VWS V13.01,2013-02-27 20:39:00,
2013-02-27 13:45:00,63.0,-9.0,27.37,WSW,239,0.0,0.0,5,0.00,,---,0.00,VWS V13.01,2013-02-27 20:45:00,
2013-02-27 13:50:00,63.0,-9.0,27.37,West,268,0.0,2.7,5,0.00,,---,0.00,VWS V13.01,2013-02-27 20:50:00,
2013-02-27 13:55:00,62.8,-9.2,27.37,WNW,295,5.4,6.3,5,0.00,,---,0.00,VWS V13.01,2013-02-27 20:55:00,
2013-02-27 14:00:00,63.0,-9.0,27.37,West,263,8.1,11.0,5,0.00,,---,0.00,VWS V13.01,2013-02-27 21:00:00,
2013-02-27 14:06:00,62.6,-9.3,27.37,NW,324,0.0,5.8,5,0.00,,---,0.00,VWS V13.01,2013-02-27 21:06:00,
2013-02-27 14:11:00,62.6,-9.3,27.37,WSW,247,4.0,5.8,5,0.00,,---,0.00,VWS V13.01,2013-02-27 21:11:00,
2013-02-27 14:16:00,62.6,-9.3,27.37,WNW,301,0.0,5.4,5,0.00,,---,0.00,VWS V13.01,2013-02-27 21:16:00,
2013-02-27 14:22:00,63.3,-8.8,27.34,West,279,4.9,7.6,5,0.00,,---,0.00,VWS V13.01,2013-02-27 21:22:00,
2013-02-27 14:27:00,63.0,-9.0,27.34,WSW,240,3.1,6.7,5,0.00,,---,0.00,VWS V13.01,2013-02-27 21:27:00,
2013-02-27 14:32:00,62.8,-9.2,27.34,NW,307,5.4,5.4,5,0.00,,---,0.00,VWS V13.01,2013-02-27 21:32:00,
2013-02-27 14:37:00,63.0,-9.0,27.34,NW,304,8.7,8.7,5,0.00,,---,0.00,VWS V13.01,2013-02-27 21:37:00,
2013-02-27 14:42:00,62.2,-9.6,27.34,WNW,301,4.0,7.6,5,0.00,,---,0.00,VWS V13.01,2013-02-27 21:42:00,
2013-02-27 14:47:00,63.0,-9.0,27.34,SW,223,5.8,8.3,5,0.00,,---,0.00,VWS V13.01,2013-02-27 21:47:00,
2013-02-27 14:53:00,63.1,-8.9,27.34,SW,235,5.8,6.3,5,0.00,,---,0.00,VWS V13.01,2013-02-27 21:53:00,
2013-02-27 14:58:00,63.0,-9.0,27.34,West,262,3.6,6.3,5,0.00,,---,0.00,VWS V13.01,2013-02-27 21:58:00,
2013-02-27 15:03:00,62.4,-9.4,27.34,WNW,282,5.4,7.6,5,0.00,,---,0.00,VWS V13.01,2013-02-27 22:03:00,
2013-02-27 15:08:00,62.4,-9.4,27.34,SW,222,5.4,8.1,5,0.00,,---,0.00,VWS V13.01,2013-02-27 22:08:00,
2013-02-27 15:13:00,63.0,-9.0,27.34,WSW,248,5.4,8.7,5,0.00,,---,0.00,VWS V13.01,2013-02-27 22:13:00,
2013-02-27 15:18:00,62.8,-9.2,27.34,WSW,245,5.4,7.6,5,0.00,,---,0.00,VWS V13.01,2013-02-27 22:18:00,
2013-02-27 15:24:00,63.0,-9.0,27.34,WSW,246,7.2,7.2,5,0.00,,---,0.00,VWS V13.01,2013-02-27 22:24:00,
2013-02-27 15:29:00,62.8,-9.2,27.34,West,276,5.8,8.1,5,0.00,,---,0.00,VWS V13.01,2013-02-27 22:29:00,
2013-02-27 15:34:00,62.8,-9.2,27.34,WSW,257,4.0,7.6,5,0.00,,---,0.00,VWS V13.01,2013-02-27 22:34:00,
2013-02-27 15:40:00,62.4,-9.4,27.34,WNW,287,3.1,7.6,5,0.00,,---,0.00,VWS V13.01,2013-02-27 22:40:00,
2013-02-27 15:45:00,62.8,-9.2,27.34,WNW,294,4.0,5.4,5,0.00,,---,0.00,VWS V13.01,2013-02-27 22:45:00,
2013-02-27 15:50:00,62.8,-9.2,27.34,WNW,291,5.8,8.1,5,0.00,,---,0.00,VWS V13.01,2013-02-27 22:50:00,
2013-02-27 15:56:00,62.2,-9.6,27.34,WNW,293,4.0,6.3,5,0.00,,---,0.00,VWS V13.01,2013-02-27 22:56:00,
2013-02-27 16:01:00,62.2,-9.6,27.34,NNW,338,0.0,3.1,5,0.00,,---,0.00,VWS V13.01,2013-02-27 23:01:00,
2013-02-27 16:06:00,62.4,-9.4,27.34,West,271,0.0,8.7,5,0.00,,---,0.00,VWS V13.01,2013-02-27 23:06:00,
2013-02-27 16:12:00,62.6,-9.3,27.34,WNW,290,3.6,5.8,5,0.00,,---,0.00,VWS V13.01,2013-02-27 23:12:00,
2013-02-27 16:17:00,62.4,-9.4,27.34,WNW,289,5.4,8.3,5,0.00,,---,0.00,VWS V13.01,2013-02-27 23:17:00,
2013-02-27 16:22:00,62.6,-9.3,27.34,West,259,0.0,4.9,5,0.00,,---,0.00,VWS V13.01,2013-02-27 23:22:00,
2013-02-27 16:27:00,62.2,-9.6,27.34,WNW,301,5.8,7.6,5,0.00,,---,0.00,VWS V13.01,2013-02-27 23:27:00,
2013-02-27 16:32:00,62.1,-9.7,27.34,WNW,286,3.6,8.1,5,0.00,,---,0.00,VWS V13.01,2013-02-27 23:32:00,
2013-02-27 16:37:00,61.9,-9.8,27.32,NW,324,2.7,6.3,5,0.00,,---,0.00,VWS V13.01,2013-02-27 23:37:00,
2013-02-27 16:43:00,62.2,-9.6,27.32,WNW,290,8.3,9.2,5,0.00,,---,0.00,VWS V13.01,2013-02-27 23:43:00,
2013-02-27 16:48:00,61.9,-9.8,27.32,WNW,289,5.4,8.3,5,0.00,,---,0.00,VWS V13.01,2013-02-27 23:48:00,
2013-02-27 16:53:00,61.7,-9.9,27.34,SW,218,3.1,8.7,5,0.00,,---,0.00,VWS V13.01,2013-02-27 23:53:00,
2013-02-27 16:58:00,61.7,-9.9,27.34,WNW,292,3.6,4.9,5,0.00,,---,0.00,VWS V13.01,2013-02-27 23:58:00,
2013-02-27 17:04:00,61.3,-10.2,27.34,SW,227,8.1,10.5,5,0.00,,---,0.00,VWS V13.01,2013-02-28 00:04:00,
2013-02-27 17:09:00,61.3,-10.2,27.34,WNW,291,6.3,6.3,5,0.00,,---,0.00,VWS V13.01,2013-02-28 00:09:00,
2013-02-27 17:14:00,61.2,-10.3,27.34,West,267,5.4,8.7,5,0.00,,---,0.00,VWS V13.01,2013-02-28 00:14:00,
2013-02-27 17:19:00,60.6,-7.0,27.34,West,275,10.5,13.2,6,0.00,,---,0.00,VWS V13.01,2013-02-28 00:19:00,
2013-02-27 17:25:00,60.1,-7.4,27.34,West,280,8.3,10.5,6,0.00,,---,0.00,VWS V13.01,2013-02-28 00:25:00,
2013-02-27 17:30:00,59.7,-7.7,27.34,WNW,298,5.8,8.7,6,0.00,,---,0.00,VWS V13.01,2013-02-28 00:30:00,
2013-02-27 17:35:00,59.4,-7.9,27.34,WSW,249,10.5,12.3,6,0.00,,---,0.00,VWS V13.01,2013-02-28 00:35:00,
2013-02-27 17:40:00,59.2,-8.1,27.34,WSW,255,8.3,11.9,6,0.00,,---,0.00,VWS V13.01,2013-02-28 00:40:00,
2013-02-27 17:45:00,59.0,-8.2,27.34,WSW,248,10.5,11.4,6,0.00,,---,0.00,VWS V13.01,2013-02-28 00:45:00,
2013-02-27 17:50:00,58.6,-8.4,27.34,WNW,289,4.9,10.1,6,0.00,,---,0.00,VWS V13.01,2013-02-28 00:50:00,
2013-02-27 17:56:00,58.3,-8.7,27.34,WNW,293,5.4,6.3,6,0.00,,---,0.00,VWS V13.01,2013-02-28 00:56:00,
2013-02-27 18:01:00,58.1,-8.8,27.34,West,259,6.3,11.0,6,0.00,,---,0.00,VWS V13.01,2013-02-28 01:01:00,
2013-02-27 18:06:00,57.7,-9.1,27.34,WNW,294,3.6,11.0,6,0.00,,---,0.00,VWS V13.01,2013-02-28 01:06:00,
2013-02-27 18:11:00,57.6,-9.2,27.34,West,265,5.4,8.3,6,0.00,,---,0.00,VWS V13.01,2013-02-28 01:11:00,
2013-02-27 18:16:00,57.2,-9.5,27.34,NW,319,5.8,10.1,6,0.00,,---,0.00,VWS V13.01,2013-02-28 01:16:00,
2013-02-27 18:21:00,56.8,-9.8,27.34,WNW,287,11.0,11.0,6,0.00,,---,0.00,VWS V13.01,2013-02-28 01:21:00,
2013-02-27 18:27:00,56.7,-9.9,27.34,WSW,243,9.6,9.6,6,0.00,,---,0.00,VWS V13.01,2013-02-28 01:27:00,
2013-02-27 18:32:00,56.5,-10.0,27.34,WSW,249,5.8,10.5,6,0.00,,---,0.00,VWS V13.01,2013-02-28 01:32:00,
2013-02-27 18:37:00,56.3,-10.2,27.37,WNW,287,8.3,10.1,6,0.00,,---,0.00,VWS V13.01,2013-02-28 01:37:00,
2013-02-27 18:43:00,56.1,-10.3,27.37,WNW,286,8.3,10.5,6,0.00,,---,0.00,VWS V13.01,2013-02-28 01:43:00,
2013-02-27 18:48:00,55.8,-10.6,27.37,WNW,282,5.8,7.6,6,0.00,,---,0.00,VWS V13.01,2013-02-28 01:48:00,
2013-02-27 18:53:00,55.6,-10.7,27.34,WNW,283,7.6,10.5,6,0.00,,---,0.00,VWS V13.01,2013-02-28 01:53:00,
2013-02-27 18:58:00,55.4,-10.8,27.34,WNW,300,7.6,8.7,6,0.00,,---,0.00,VWS V13.01,2013-02-28 01:58:00,
2013-02-27 19:04:00,55.2,-7.8,27.34,WNW,298,10.1,12.3,7,0.00,,---,0.00,VWS V13.01,2013-02-28 02:04:00,
2013-02-27 19:09:00,55.0,-8.0,27.37,NW,315,7.6,12.3,7,0.00,,---,0.00,VWS V13.01,2013-02-28 02:09:00,
2013-02-27 19:14:00,54.7,-8.2,27.37,WNW,285,8.7,8.7,7,0.00,,---,0.00,VWS V13.01,2013-02-28 02:14:00,
2013-02-27 19:20:00,54.5,-8.4,27.37,West,263,8.3,11.0,7,0.00,,---,0.00,VWS V13.01,2013-02-28 02:20:00,
2013-02-27 19:25:00,54.3,-8.5,27.37,West,260,5.8,8.3,7,0.00,,---,0.00,VWS V13.01,2013-02-28 02:25:00,
2013-02-27 19:30:00,54.1,-8.6,27.37,WSW,254,8.3,11.0,7,0.00,,---,0.00,VWS V13.01,2013-02-28 02:30:00,
2013-02-27 19:36:00,53.8,-8.9,27.37,WSW,251,4.0,6.3,7,0.00,,---,0.00,VWS V13.01,2013-02-28 02:36:00,
2013-02-27 19:41:00,53.4,-9.2,27.37,WSW,251,10.5,12.3,7,0.00,,---,0.00,VWS V13.01,2013-02-28 02:41:00,
2013-02-27 19:46:00,53.2,-9.3,27.37,WSW,244,11.0,11.0,7,0.00,,---,0.00,VWS V13.01,2013-02-28 02:46:00,
2013-02-27 19:51:00,53.1,-9.4,27.37,NW,304,5.8,8.1,7,0.00,,---,0.00,VWS V13.01,2013-02-28 02:51:00,
2013-02-27 19:57:00,52.9,-9.6,27.37,WNW,287,7.6,7.6,7,0.00,,---,0.00,VWS V13.01,2013-02-28 02:57:00,
2013-02-27 20:02:00,52.7,-9.7,27.37,West,274,8.3,9.6,7,0.00,,---,0.00,VWS V13.01,2013-02-28 03:02:00,
2013-02-27 20:07:00,52.5,-9.8,27.37,WNW,294,6.3,9.6,7,0.00,,---,0.00,VWS V13.01,2013-02-28 03:07:00,
2013-02-27 20:12:00,52.3,-10.0,27.37,WNW,284,3.1,5.4,7,0.00,,---,0.00,VWS V13.01,2013-02-28 03:12:00,
2013-02-27 20:17:00,52.2,-10.1,27.37,NW,313,4.0,7.6,7,0.00,,---,0.00,VWS V13.01,2013-02-28 03:17:00,
2013-02-27 20:22:00,52.0,-10.2,27.37,NW,304,3.6,5.8,7,0.00,,---,0.00,VWS V13.01,2013-02-28 03:22:00,
2013-02-27 20:28:00,51.6,-7.8,27.37,NW,304,0.0,0.0,8,0.00,,---,0.00,VWS V13.01,2013-02-28 03:28:00,
2013-02-27 20:33:00,51.3,-8.1,27.37,NW,304,0.0,0.0,8,0.00,,---,0.00,VWS V13.01,2013-02-28 03:33:00,
2013-02-27 20:38:00,50.7,-8.5,27.37,NW,304,0.0,0.0,8,0.00,,---,0.00,VWS V13.01,2013-02-28 03:38:00,
2013-02-27 20:43:00,49.8,-9.1,27.37,NW,304,0.0,0.0,8,0.00,,---,0.00,VWS V13.01,2013-02-28 03:43:00,
2013-02-27 20:48:00,49.5,-9.4,27.37,NW,304,0.0,0.0,8,0.00,,---,0.00,VWS V13.01,2013-02-28 03:48:00,
2013-02-27 20:53:00,48.9,-9.8,27.40,West,271,0.0,0.0,8,0.00,,---,0.00,VWS V13.01,2013-02-28 03:53:00,
2013-02-27 20:59:00,48.6,-10.1,27.40,South,182,0.0,0.0,8,0.00,,---,0.00,VWS V13.01,2013-02-28 03:59:00,
2013-02-27 21:04:00,48.0,-10.5,27.40,South,182,4.0,4.0,8,0.00,,---,0.00,VWS V13.01,2013-02-28 04:04:00,
2013-02-27 21:09:00,48.0,-10.5,27.40,South,183,2.2,5.8,8,0.00,,---,0.00,VWS V13.01,2013-02-28 04:09:00,
2013-02-27 21:14:00,47.7,-10.8,27.40,South,183,0.0,4.5,8,0.00,,---,0.00,VWS V13.01,2013-02-28 04:14:00,
2013-02-27 21:19:00,47.5,-10.9,27.40,South,183,0.0,0.0,8,0.00,,---,0.00,VWS V13.01,2013-02-28 04:19:00,
2013-02-27 21:24:00,47.1,-11.2,27.40,ENE,63,0.0,0.0,8,0.00,,---,0.00,VWS V13.01,2013-02-28 04:24:00,
2013-02-27 21:30:00,46.8,-11.5,27.40,ENE,69,0.0,3.1,8,0.00,,---,0.00,VWS V13.01,2013-02-28 04:30:00,
2013-02-27 21:35:00,46.6,-11.6,27.40,ENE,70,0.0,0.0,8,0.00,,---,0.00,VWS V13.01,2013-02-28 04:35:00,
2013-02-27 21:40:00,46.2,-9.5,27.40,ENE,73,0.0,0.0,9,0.00,,---,0.00,VWS V13.01,2013-02-28 04:40:00,
2013-02-27 21:46:00,45.9,-9.8,27.40,ESE,109,2.2,3.6,9,0.00,,---,0.00,VWS V13.01,2013-02-28 04:46:00,
2013-02-27 21:51:00,45.5,-10.1,27.43,ESE,102,0.0,0.0,9,0.00,,---,0.00,VWS V13.01,2013-02-28 04:51:00,
2013-02-27 21:56:00,45.3,-10.2,27.43,ESE,103,0.0,3.1,9,0.00,,---,0.00,VWS V13.01,2013-02-28 04:56:00,
2013-02-27 22:00:00,45.1,-10.3,27.43,East,97,0.0,4.9,9,0.00,,---,0.00,VWS V13.01,2013-02-28 05:00:00,
2013-02-27 22:01:00,45.1,-10.3,27.43,East,98,2.7,3.6,9,0.00,,---,0.00,VWS V13.01,2013-02-28 05:01:00,
2013-02-27 22:03:00,45.1,-10.3,27.43,East,98,0.0,3.1,9,0.00,,---,0.00,VWS V13.01,2013-02-28 05:03:00,
2013-02-27 22:08:00,45.0,-10.5,27.43,East,92,0.0,3.6,9,0.00,,---,0.00,VWS V13.01,2013-02-28 05:08:00,
2013-02-27 22:13:00,45.0,-10.5,27.43,East,97,3.1,4.0,9,0.00,,---,0.00,VWS V13.01,2013-02-28 05:13:00,
2013-02-27 22:18:00,44.8,-10.6,27.43,East,98,4.5,4.5,9,0.00,,---,0.00,VWS V13.01,2013-02-28 05:18:00,
2013-02-27 22:23:00,45.0,-10.5,27.43,ESE,102,3.1,5.4,9,0.00,,---,0.00,VWS V13.01,2013-02-28 05:23:00,
2013-02-27 22:28:00,45.0,-10.5,27.43,ESE,104,0.0,3.1,9,0.00,,---,0.00,VWS V13.01,2013-02-28 05:28:00,
2013-02-27 22:33:00,44.8,-10.6,27.43,ESE,105,3.1,3.1,9,0.00,,---,0.00,VWS V13.01,2013-02-28 05:33:00,
2013-02-27 22:39:00,44.8,-8.5,27.43,ESE,118,2.7,4.0,10,0.00,,---,0.00,VWS V13.01,2013-02-28 05:39:00,
2013-02-27 22:44:00,44.6,-8.6,27.43,ESE,119,0.0,3.6,10,0.00,,---,0.00,VWS V13.01,2013-02-28 05:44:00,
2013-02-27 22:49:00,44.1,-9.0,27.43,ESE,119,0.0,0.0,10,0.00,,---,0.00,VWS V13.01,2013-02-28 05:49:00,
2013-02-27 22:55:00,43.7,-3.9,27.43,ESE,119,0.0,0.0,13,0.00,,---,0.00,VWS V13.01,2013-02-28 05:55:00,
2013-02-27 23:00:00,43.3,-1.2,27.43,ESE,119,0.0,0.0,15,0.00,,---,0.00,VWS V13.01,2013-02-28 06:00:00,
2013-02-27 23:05:00,43.3,2.7,27.43,ESE,119,0.0,0.0,18,0.00,,---,0.00,VWS V13.01,2013-02-28 06:05:00,
2013-02-27 23:10:00,43.2,2.5,27.43,ESE,118,0.0,2.7,18,0.00,,---,0.00,VWS V13.01,2013-02-28 06:10:00,
2013-02-27 23:16:00,43.0,2.4,27.43,ESE,111,0.0,2.2,18,0.00,,---,0.00,VWS V13.01,2013-02-28 06:16:00,
2013-02-27 23:21:00,42.8,4.5,27.43,ESE,107,0.0,0.0,20,0.00,,---,0.00,VWS V13.01,2013-02-28 06:21:00,
2013-02-27 23:26:00,42.6,5.4,27.43,ESE,106,3.6,3.6,21,0.00,,---,0.00,VWS V13.01,2013-02-28 06:26:00,
2013-02-27 23:32:00,42.6,5.4,27.43,ESE,106,0.0,0.0,21,0.00,,---,0.00,VWS V13.01,2013-02-28 06:32:00,
2013-02-27 23:37:00,42.6,5.4,27.43,ESE,107,2.7,4.0,21,0.00,,---,0.00,VWS V13.01,2013-02-28 06:37:00,
2013-02-27 23:42:00,42.6,5.4,27.43,East,88,2.7,4.9,21,0.00,,---,0.00,VWS V13.01,2013-02-28 06:42:00,
2013-02-27 23:47:00,42.6,5.4,27.43,ESE,102,4.0,4.9,21,0.00,,---,0.00,VWS V13.01,2013-02-28 06:47:00,
2013-02-27 23:53:00,42.6,5.4,27.43,East,92,4.0,4.5,21,0.00,,---,0.00,VWS V13.01,2013-02-28 06:53:00,
2013-02-27 23:58:00,42.6,5.4,27.43,ESE,113,0.0,2.2,21,0.00,,---,0.00,VWS V13.01,2013-02-28 06:58:00,